Regional Weather Roundup
Issued by NWS

Home | Current Version | Previous Version | Text Only | Print | Product List | Glossary Off
Versions: 1 2 3 4 5 6 7 8 9 10 11 12 13 14 15 16 17 18 19 20 21 22 23 24 25 26 27 28 29 30 31 32 33 34 35 36 37 38 39 40 41 42 43 44 45 46 47 48 49 50

000
ASUS43 KFSD 040610
RWRSD

WEATHER ROUNDUP FOR SOUTH DAKOTA
NATIONAL WEATHER SERVICE SIOUX FALLS SD
100 AM CDT FRI SEP 04 2015

NOTE: "FAIR" INDICATES FEW OR NO CLOUDS BELOW 12,000 FEET WITH NO
SIGNIFICANT WEATHER AND/OR OBSTRUCTIONS TO VISIBILITY.


SDZ001>005-009-010-012>017-040700-
NORTHWEST AND NORTH CENTRAL SOUTH DAKOTA

CITY           SKY/WX    TMP DP  RH WIND       PRES   REMARKS
BUFFALO          N/A     72  51  47 SE8       29.65S
MOBRIDGE       CLOUDY    74  72  93 E7        29.70S
$$

SDZ012>016-024>037-041>051-057-063-072>074-040700-
SOUTHWEST AND SOUTH CENTRAL SOUTH DAKOTA

CITY           SKY/WX    TMP DP  RH WIND       PRES   REMARKS
RAPID CTY ARPT CLOUDY    71  53  52 SE9       29.78S
PIERRE         MOCLDY    75  70  84 SE8       29.68S
CUSTER         CLOUDY    69  45  41 VRB3      29.93F
ELLSWORTH AFB  CLOUDY    75  52  45 SE12      29.76S
PHILIP         CLOUDY    77  54  44 E5        29.69F
PINE RIDGE     CLOUDY    76  50  40 SW8       29.80F
WINNER         FAIR      79  66  64 S6        29.72S
$$

SDZ004>011-016>023-039-040-040700-
NORTHEAST SOUTH DAKOTA

CITY           SKY/WX    TMP DP  RH WIND       PRES   REMARKS
ABERDEEN       PTCLDY    74  70  87 SE7       29.74F
WATERTOWN      PTCLDY    75  71  87 SE7       29.80F
BROOKINGS      PTCLDY    75  70  83 SE14      29.82F
SISSETON         N/A     75  74  96 S5        29.78S
$$

SDZ017-020-022-023-036>040-048>070-040700-
SOUTHEAST SOUTH DAKOTA

CITY           SKY/WX    TMP DP  RH WIND       PRES   REMARKS
SIOUX FALLS    PTCLDY    77  71  82 SE9       29.81R
HURON          CLOUDY    76  72  87 SE10      29.72F
CHAMBERLAIN    MOCLDY    73  70  90 SE8       29.72S
MITCHELL       CLOUDY    78  72  81 SE9       29.74S
YANKTON        MOCLDY    77  70  78 SE9       29.76S
$$

ABBREVIATIONS USED IN REMARKS
   TC - TEMPERATURE IN CELSIUS
  WCI - WIND CHILL INDEX
   HX - HEAT INDEX
  VSB - VISIBILITY



USA.gov is the U.S. government's official web portal to all federal, state and local government web resources and services.